Location: Bergfeld
(52.0500°N, 11.7833°E)
Time: 21:43:25
(UTC+00:00)

Cosmos 1727 Rocket - Pass Details

Date: 17 February 2020
Orbit: 962 x 996 km, 82.9° (Epoch: 29 March)

Event Time Altitude Azimuth Distance (km) Brightness Sun altitude
Rises 04:32:00 0° 192° (SSW) 3,651 6.8 -18.0°
Reaches altitude 10° 04:34:31 10° 194° (SSW) 2,704 6.2 -17.6°
Maximum altitude 04:40:42 78° 281° (WNW) 992 3.9 -16.7°
Drops below altitude 10° 04:46:55 10° 8° (N) 2,711 6.4 -15.7°
Sets 04:49:26 0° 10° (N) 3,661 7.1 -15.3°
